COSMOS 1275 DEB, 42102

Orbit data source: Space-Track

COSMOS 1275 DEB, 42102 is space debris in LEO originally from a launch on Thu, 04 Jun 1981 UTC launched from the Plesetsk Missile And Space Complex (PKMTR). Debris objects in space refer to the collection of defunct objects orbiting the Earth. Examples of debris include non-operational satellites, rocket bodies, and fragments generated from explosions, collisions, or faulty payload assembly.

Loading next visibility...
Identifier
42102, 1981-053PN
Orbit
LEO
Country
Flag of CISCIS
Related business
Manufacturer
Unknown
Mission
Spacecraft
Bus & Motor
Unknown
Mass
Unknown
Launch date (UTC)
1981-06-04 (45 years ago)
Launch vehicle
Unknown
Launch site
Plesetsk Missile And Space Complex (PKMTR)
Object type
Payload
Rocket body
Debris
Shape & HBR
Unknown shape, 0.1 m
Radar Cross Section
Small (<0.1 m²)

Expand to show TLE details & history
Last TLE update: 18 hours ago

TLE from 18 hours ago
0 COSMOS 1275 DEB
1 42102U 81053PN  26033.75997520  .00001400  00000-0  11214-2 0  9990
2 42102  83.0127 153.9238 0072024 286.1169  73.2074 13.88958670615933
Epoch: 2026-02-02T18:14Z
TLE epoch observation values (Epoch: 2026-02-02T18:14:21.857Z)
Latitude
-0.00006°
Longitude
107.38208°
Altitude
920.337 km
Speed
7.399 km/s
True Right ascension
10h 15m 41s
True Declination
0° 00' 00"
Sunlit
Object was in full shadow at epoch
Visualization orbit readout
Latitude
Unknown
Longitude
Unknown
Altitude
Unknown
Speed
Unknown
Apparent Right ascension
Unknown
Apparent Declination
Unknown
Sunlit
N/A
Visualization observer readout
Local Sidereal Time
13:45:10
Azimuth
Unknown
Elevation
Unknown
Doppler factor
Unknown
Orbital elements
Apogee altitude
982.041 km
Perigee altitude
876.777 km
Semi-major axis
7,307.546 km
Eccentricity
0.0072
Inclination
83.0127°
RAAN
153.9238°
Arg. of periapsis
286.1169°
True anomaly
73.99957°
Mean anomaly
73.2074°
Eccentric anomaly
73.60328°
Mean motion
3.47445 °/min
Orbital period
103.61 mins
BSTAR
0.0011214
Loading maneuver chart data...
Computing Atmospheric mass density...

Documentation

Showing up to 5 results
|